Location: ??????
(55.8274°N, 37.9338°E)
Time: 11:31:26
(UTC+00:00)

Gbstr 26 Del rocket - Pass Details

Date: 14 April 2024
Orbit: 491 x 1240 km, 51.8° (Epoch: 19 May)

Event Time Altitude Azimuth Distance (km) Brightness Sun altitude
Exits shadow 00:31:27 22° 198° (SSW) 1,257 4.1 -14.5°
Maximum altitude 00:33:08 29° 158° (SSE) 997 3.9 -14.3°
Drops below altitude 10° 00:36:30 10° 97° (E) 1,722 5.9 -13.9°
Sets 00:38:45 0° 86° (E) 2,579 7.2 -13.7°
